Tracking 27079 objects as of 23-Mar-2023
HD Live streaming from Space Station
objects crossing your sky now

STARLINK-4296

Track STARLINK-4296 now!
10-day predictions
STARLINK-4296 is classified as:


NORAD ID: 52995
Int'l Code: 2022-076K
Perigee: 546.1 km
Apogee: 547.7 km
Inclination: 53.2 °
Period: 95.4 minutes
Semi major axis: 6917 km
RCS: Unknown
Launch date: July 7, 2022
Source: United States (US)
Launch site: AIR FORCE EASTERN TEST RANGE (AFETR)
Your satellite tracking list
Your tracking list is empty




NASA's NSSDC Master Catalog

Two Line Element Set (TLE):
1 52995U 22076K   23082.39653671  .00001075  00000-0  85599-4 0  9995
2 52995  53.2151 272.7249 0001105  93.3798 266.7321 15.08837164 39921
Source of the keplerian elements: AFSPC